Location: Waldport
(44.4270°N, 124.0680°W)
Time: 01:41:52
(UTC-07:00)

SL-8 R/B - Pass Details

Date: 23 June 2018
Orbit: 656 x 668 km, 48.4° (Epoch: 24 September)

Event Time Altitude Azimuth Distance (km) Brightness Sun altitude
Rises 21:50:34 0° 236° (SW) 2,994 7.2 -7.2°
Reaches altitude 10° 21:52:55 10° 233° (SW) 2,084 6.4 -7.5°
Maximum altitude 21:57:42 68° 151° (SSE) 721 3.7 -8.1°
Drops below altitude 10° 22:02:30 10° 70° (ENE) 2,093 6.0 -8.7°
Sets 22:04:52 0° 67° (ENE) 3,008 6.9 -9.0°
